Regional Weather Roundup
Issued by NWS Charleston, WV

Home | Current Version | Previous Version | Graphics & Text | Print | Product List | Glossary On
Versions: 1 2 3 4 5 6 7 8 9 10 11 12 13 14 15 16 17 18 19 20 21 22 23 24 25 26 27 28 29 30 31 32 33 34 35 36 37 38 39 40 41 42 43 44 45 46 47 48 49 50
000
ASUS41 KRLX 181210
RWRRLX
West Virginia Regional Weather Roundup
National Weather Service Charleston WV
800 AM EDT THU SEP 18 2014

Note: "fair" indicates few or no clouds below 12,000 feet with no
significant weather and/or obstructions to visibility.

WVZ003-181300-
Northern Panhandle of West Virginia

CITY           SKY/WX    TMP DP  RH WIND       PRES   REMARKS
WHEELING       PTCLDY    53  48  83 N5        30.06R
$$

WVZ009-181300-
Northwest West Virginia

CITY           SKY/WX    TMP DP  RH WIND       PRES   REMARKS
PARKERSBURG    PTCLDY    50  48  93 CALM      30.06R
$$

WVZ006-181300-
Western West Virginia

CITY           SKY/WX    TMP DP  RH WIND       PRES   REMARKS
HUNTINGTON     MOCLDY    54  52  93 CALM      30.03R
$$

WVZ015-181300-
West Central West Virginia

CITY           SKY/WX    TMP DP  RH WIND       PRES   REMARKS
CHARLESTON     CLOUDY    56  56 100 CALM      30.03R FOG
$$

WVZ031-181300-
North Central West Virginia

CITY           SKY/WX    TMP DP  RH WIND       PRES   REMARKS
CLARKSBURG     FOG       52  51  97 CALM      30.04S VSB 1/2
MORGANTOWN     FOG       54  51  90 CALM      30.06R VSB<1/4
$$

WVZ035-042-045-181300-
South Central West Virginia

CITY           SKY/WX    TMP DP  RH WIND       PRES   REMARKS
BECKLEY        CLOUDY    57  53  86 CALM      30.05R
BLUEFIELD      FOG       55  53  93 W3        30.06R VSB<1/4
LEWISBURG      FOG       53  51  94 CALM      30.05R VSB 1/2
$$

WVZ047-181300-
Northern Mountains of West Virginia

CITY           SKY/WX    TMP DP  RH WIND       PRES   REMARKS
ELKINS         CLOUDY    52  50  93 CALM      30.06S FOG
$$

WVZ052-181300-
Eastern Panhandle of West Virginia

CITY           SKY/WX    TMP DP  RH WIND       PRES   REMARKS
MARTINSBURG    PTSUNNY   54  50  86 CALM      30.02R
PETERSBURG     CLOUDY    52  50  93 CALM      30.05R FOG
$$



USA.gov is the U.S. government's official web portal to all federal, state and local government web resources and services.